Weather Roundup
Issued by NWS

Home | Current Version | Previous Version | Graphics & Text | Print | Product List | Glossary Off
Versions: 1 2 3 4 5 6 7 8 9 10 11 12 13 14 15 16 17 18 19 20 21 22 23 24 25 26 27 28 29 30 31 32 33 34 35 36 37 38 39 40 41 42 43 44 45 46 47 48 49 50

000
NZUS93 KARX 220510
HRRWXR

CURRENT HOURLY OBSERVATIONS ACROSS
MUCH OF THE UPPER MISSISSIPPI VALLEY
NATIONAL WEATHER SERVICE LA CROSSE WI
1100 PM CST SAT JAN 21 2017


...SOUTHEAST MINNESOTA...


CITY           SKY/WX    TMP DP  RH WIND       PRES   REMARKS
ROCHESTER      CLOUDY    34  34 100 W9        29.52R FOG     WCI  27
ROCHESTER/MAYO CLOUDY    37  37 100 SW9       29.53R VSB 3/4 WCI  30
WINONA         CLOUDY    36  36 100 CALM      29.54S
AUSTIN         CLOUDY    34  34 100 SW3       29.54R FOG
ALBERT LEA     CLOUDY    34  34 100 SW3       29.53S FOG
DODGE CENTER   FOG       34  34 100 CALM      29.52S VSB 3/4
PRESTON        FOG       34  33  97 W9        29.54R VSB 3/4 WCI  27
OWATONNA       FOG       34  34 100 SW6       29.54R VSB 1/4 WCI  29
FARIBAULT      NOT AVBL
$$

...ELSEWHERE IN MINNESOTA...


CITY           SKY/WX    TMP DP  RH WIND       PRES   REMARKS
MINNEAPOLIS    DRZL/FOG  36  35  96 CALM      29.54R VSB 1/4
INTNL FALLS    FOG       34  33  96 NE3       29.57S VSB 1/4
DULUTH         CLOUDY    34  34 100 NE7       29.53R WCI  28
RED WING       FOG       36  34  93 CALM      29.53R VSB 1/2
REDWOOD FALLS  FOG       34  32  92 W3        29.54R VSB 1/4
MANKATO        FOG       35  34  96 W6        29.54R VSB 1/4 WCI  30
WORTHINGTON    CLOUDY    32  31  96 MISG        N/A
FAIRMONT       CLOUDY    33  31  92 W7        29.55R WCI  27
$$

...SOUTHWEST WISCONSIN...


CITY           SKY/WX    TMP DP  RH WIND       PRES   REMARKS
LA CROSSE      CLOUDY    40  37  89 S5        29.54R
PRAIRIE DU CHI FOG       37  37  97 CALM      29.56S VSB 1
BOSCOBEL       FOG       37  36  96 CALM      29.57R VSB 1/2
LONE ROCK      FOG       37  36  96 CALM      29.57S VSB 1/4
PLATTEVILLE    CLOUDY    38  38 100 S5        29.57S VSB 1/2 WCI  35
FORT MC COY    CLOUDY    37  37 100 S6        29.55R WCI  33
CAMP DOUGLAS   CLOUDY    39  39  99 S6        29.54R WCI  35
MAUSTON-NEW LI CLOUDY    40  40 100 SW3       29.54R FOG
VIROQUA        CLOUDY    37  37 100 SW7       29.54R VSB 1/4 WCI  31
WIS DELLS      CLOUDY    39  39  99 S3        29.56R FOG
$$

...ELSEWHERE IN WISCONSIN...


CITY           SKY/WX    TMP DP  RH WIND       PRES   REMARKS
MILWAUKEE      CLOUDY    44  40  85 W6        29.59R
MADISON        DRIZZLE   41  40  96 CALM      29.58S FOG
GREEN BAY      FOG       37  37 100 SE3       29.54S VSB 1/4
EAU CLAIRE     FOG       34  32  92 CALM      29.51S VSB 1/4
BLACK RVR FLS  FOG       39  39 100 SW3       29.53R VSB 1/2
MEDFORD        FOG       33  33  99 CALM      29.50R VSB 1/4
WAUSAU         FOG       35  35 100 CALM      29.51R VSB 1/4
WIS RAPIDS     FOG       38  38 100 SW6       29.54R VSB 1/4 WCI  33
MARSHFIELD     FOG       36  35  96 SW3       29.51R VSB 1/4
RICE LAKE      FOG       33  33 100 CALM      29.53S VSB 1/4
$$

...NORTHEAST IOWA...


CITY           SKY/WX    TMP DP  RH WIND       PRES   REMARKS
WATERLOO       PTCLDY    34  32  92 CALM      29.56S FOG
DUBUQUE        FOG       37  36  96 S3        29.57S VSB 1
DECORAH        CLOUDY    37  37 100 VRB5      29.54S FOG     WCI  34
MASON CITY     CLOUDY    33  30  88 W8        29.56R WCI  26
CHARLES CITY   CLOUDY    34  34 100 SW5       29.56R FOG     WCI  30
OELWEIN        PTCLDY    36  36 100 W5        29.56S FOG     WCI  32
$$

...ELSEWHERE IN IOWA...


CITY           SKY/WX    TMP DP  RH WIND       PRES   REMARKS
DES MOINES     PTCLDY    34  32  92 S5        29.56S FOG     WCI  30
IOWA CITY      CLOUDY    39  37  92 CALM      29.61R
FORT DODGE     CLOUDY    34  30  86 W3        29.57R
MARSHALLTOWN   CLEAR     34  34 100 CALM      29.55S FOG
CEDAR RAPIDS   CLEAR     34  33  96 S3        29.57R FOG
$$

...NORTHERN ILLINOIS...


CITY           SKY/WX    TMP DP  RH WIND       PRES   REMARKS
CHICAGO-OHARE  FOG       41  41 100 NW9       29.60R VSB 1/8
CHICAGO-MIDWAY MOCLDY    43  40  89 CALM      29.59S
MOLINE         CLOUDY    44  38  79 NW3       29.59S
ROCKFORD       DRZL/FOG  42  40  92 SW3       29.61R VSB 1
PEORIA         PTCLDY    39  39 100 N3        29.59F FOG
$$

NOTE: "FAIR" INDICATES FEW OR NO CLOUDS BELOW 12,000 FEET WITH NO
SIGNIFICANT WEATHER AND/OR OBSTRUCTIONS TO VISIBILITY. WIND
SPEEDS ARE IN MILES-PER-HOUR.




USA.gov is the U.S. government's official web portal to all federal, state and local government web resources and services.